NT2C Weather Reports


Display with metric or nautical units.
time (UTC)temp
F
wind
direction
speed
MPH
gust
MPH
rain 1hr
in
rain 24hr
in
rain mn
in
humidity
%
barometer
mb
20260903050511 72 28 0.0 0.0 0.00 0.00 0.00 92 1009.9
20260903050011 72 28 0.0 0.0 0.00 0.00 0.00 92 1010.0
20260903045511 72 28 0.0 0.0 0.00 0.00 0.00 92 1010.0
20260903045009 72 28 0.0 0.0 0.00 0.00 0.00 92 1010.0
20260903044508 72 28 0.0 0.0 0.00 0.00 0.00 92 1010.1
20260903044008 72 28 0.0 0.0 0.00 0.00 0.00 92 1010.1
20260903043510 72 28 0.0 0.0 0.00 0.00 0.00 92 1009.9
20260903043009 72 28 0.0 0.0 0.00 0.00 0.00 92 1010.0
20260903042503 72 28 0.0 0.0 0.00 0.00 0.00 92 1010.0
20260903042002 72 28 0.0 0.0 0.00 0.00 0.00 92 1009.9
20260903041502 72 28 0.0 1.0 0.00 0.00 0.00 92 1009.9
20260903041101 73 28 0.0 1.0 0.00 0.00 0.00 92 1009.9
20260903040558 73 26 0.0 0.0 0.00 0.00 0.00 92 1009.9
20260903040103 73 26 0.0 1.0 0.00 0.00 0.00 92 1009.9
20260903035556 73 26 0.0 1.0 0.00 0.00 0.00 92 1009.9
20260903035056 73 26 0.0 1.0 0.00 0.00 0.00 91 1010.1
20260903034556 72 26 0.0 1.0 0.00 0.00 0.00 91 1010.0
20260903034057 72 221 0.0 0.0 0.00 0.00 0.00 91 1009.9
20260903033556 73 221 0.0 0.0 0.00 0.00 0.00 91 1009.9
20260903033055 73 221 0.0 0.0 0.00 0.00 0.00 91 1009.8
20260903032555 73 221 0.0 0.0 0.00 0.00 0.00 91 1009.7
20260903032054 72 221 0.0 0.0 0.00 0.00 0.00 91 1009.6
20260903031558 73 221 0.0 0.0 0.00 0.00 0.00 90 1009.3
20260903031055 73 221 0.0 0.0 0.00 0.00 0.00 90 1009.4
20260903030554 73 221 0.0 0.0 0.00 0.00 0.00 90 1009.4
20260903030054 73 221 0.0 0.0 0.00 0.00 0.00 90 1009.4
20260903025554 73 221 0.0 0.0 0.00 0.00 0.00 90 1009.4
20260903025053 73 221 0.0 0.0 0.00 0.00 0.00 90 1009.4
20260903024553 73 221 0.0 0.0 0.00 0.00 0.00 90 1009.2
20260903024053 73 221 0.0 0.0 0.00 0.00 0.00 89 1009.0
20260903023554 73 221 0.0 0.0 0.00 0.00 0.00 89 1009.0
20260903023105 73 221 0.0 0.0 0.00 0.00 0.00 89 1009.0
20260903022550 73 221 0.0 0.0 0.00 0.00 0.00 89 1009.0
20260903022053 73 221 0.0 0.0 0.00 0.00 0.00 89 1009.0
20260903021551 73 221 0.0 0.0 0.00 0.00 0.00 89 1009.0
20260903021049 74 221 0.0 0.0 0.00 0.00 0.00 88 1009.2
20260903020551 74 221 0.0 0.0 0.00 0.00 0.00 88 1009.4
20260903020049 74 221 0.0 0.0 0.00 0.00 0.00 88 1009.6
20260903015549 74 221 0.0 0.0 0.00 0.00 0.00 87 1009.4
20260903015048 74 221 0.0 0.0 0.00 0.00 0.00 87 1009.4
20260903014548 74 221 0.0 0.0 0.00 0.00 0.00 87 1009.6
20260903014047 74 221 0.0 0.0 0.00 0.00 0.00 87 1009.6
20260903013551 74 219 0.0 0.0 0.00 0.00 0.00 87 1009.6
20260903013049 75 219 0.0 0.0 0.00 0.00 0.00 87 1009.4
20260903012550 75 220 0.0 0.0 0.00 0.00 0.00 86 1009.5
20260903012045 75 220 0.0 0.0 0.00 0.00 0.00 86 1009.6
20260903011545 75 219 0.0 0.0 0.00 0.00 0.00 86 1009.4
20260903011045 75 219 0.0 0.0 0.00 0.00 0.00 86 1009.5
20260903010544 75 214 0.0 0.0 0.00 0.00 0.00 86 1009.8
20260903010044 75 276 0.0 0.0 0.00 0.00 0.00 86 1009.9
20260903005545 75 276 0.0 0.0 0.00 0.00 0.00 86 1009.9
20260903005043 75 40 0.0 0.0 0.00 0.00 0.00 86 1009.7
20260903004544 75 40 0.0 0.0 0.00 0.00 0.00 85 1009.8
20260903004044 75 40 0.0 1.0 0.00 0.00 0.00 85 1009.8
20260903003545 75 250 0.0 0.0 0.00 0.00 0.00 85 1009.9
20260903003050 76 250 0.0 0.0 0.00 0.00 0.00 84 1009.5
20260903002543 76 250 0.0 0.0 0.00 0.00 0.00 84 1009.3
20260903002047 75 250 0.0 0.0 0.00 0.00 0.00 85 1009.3
20260903001543 76 250 0.0 0.0 0.00 0.00 0.00 84 1009.3
20260903001043 76 250 0.0 0.0 0.00 0.00 0.00 84 1009.5
20260903000543 75 247 0.0 0.0 0.00 0.00 0.00 84 1009.4
20260903000042 76 247 0.0 1.0 0.00 0.00 0.00 85 1009.2
20260902235542 76 248 0.0 1.0 0.00 0.00 0.00 84 1009.6
20260902235042 76 238 0.0 1.0 0.00 0.00 0.00 84 1009.4
20260902234542 76 225 0.0 0.0 0.00 0.00 0.00 84 1009.0
20260902234044 76 224 0.0 0.0 0.00 0.00 0.00 84 1009.0
20260902233542 76 224 0.0 1.0 0.00 0.00 0.00 84 1009.3
20260902233041 77 225 0.0 1.0 0.00 0.00 0.00 84 1009.5
20260902232540 77 224 0.0 0.0 0.00 0.00 0.00 84 1009.7
20260902232040 77 224 0.0 0.0 0.00 0.00 0.00 83 1009.6
20260902231555 77 224 0.0 0.0 0.00 0.00 0.00 83 1009.8
20260902231041 77 224 0.0 1.0 0.00 0.00 0.00 83 1010.0
20260902230541 77 224 0.0 1.0 0.00 0.00 0.00 83 1010.1
20260902230041 77 225 0.0 1.0 0.00 0.00 0.00 82 1010.3
20260902225540 77 209 0.0 1.0 0.00 0.00 0.00 82 1010.4
20260902225040 77 209 0.0 1.0 0.00 0.00 0.00 82 1010.2
20260902224540 77 238 0.0 1.0 0.00 0.00 0.00 82 1010.2
20260902224039 77 238 0.0 1.0 0.00 0.00 0.00 82 1010.2
20260902223541 77 236 0.0 1.0 0.00 0.00 0.00 82 1010.2
20260902223039 77 242 0.0 0.0 0.00 0.00 0.00 82 1010.4
20260902222541 77 242 0.0 0.0 0.00 0.00 0.00 82 1010.3
20260902222039 77 242 0.0 1.0 0.00 0.00 0.00 83 1010.4
20260902221550 77 211 0.0 1.0 0.00 0.00 0.00 83 1010.5
20260902221039 77 158 0.0 1.0 0.00 0.00 0.00 83 1010.1
20260902220539 77 143 0.0 1.0 0.00 0.00 0.00 82 1009.7
20260902220042 77 143 0.0 0.0 0.00 0.00 0.00 82 1009.8
20260902215539 77 204 0.0 0.0 0.00 0.00 0.00 82 1009.7
20260902215038 78 230 0.0 1.0 0.00 0.00 0.00 82 1009.8
20260902214544 78 230 0.0 1.0 0.00 0.00 0.00 81 1009.9
20260902214038 78 231 0.0 1.0 0.00 0.00 0.00 81 1009.7
20260902213537 78 118 0.0 1.0 0.00 0.00 0.00 81 1009.5
20260902213048 78 119 0.0 1.0 0.00 0.00 0.00 81 1009.5
20260902212537 78 119 0.0 1.0 0.00 0.00 0.00 81 1009.8
20260902212037 78 119 0.0 1.0 0.00 0.00 0.00 81 1009.8
20260902211537 78 120 0.0 1.0 0.00 0.00 0.00 81 1010.0
20260902211036 78 120 0.0 1.0 0.00 0.00 0.00 81 1010.2
20260902210536 78 120 0.0 1.0 0.00 0.00 0.00 80 1010.0
20260902210039 78 120 0.0 1.0 0.00 0.00 0.00 80 1010.2
20260902205536 79 88 0.0 1.0 0.00 0.00 0.00 80 1010.3
20260902205036 79 246 0.0 4.0 0.00 0.00 0.00 79 1010.5
20260902204536 79 246 0.0 4.0 0.00 0.00 0.00 79 1010.6
20260902204035 79 225 0.0 2.0 0.00 0.00 0.00 79 1010.4
20260902203535 79 101 1.0 7.0 0.00 0.00 0.00 78 1010.3
20260902203038 80 115 1.0 7.0 0.00 0.00 0.00 78 1010.4
20260902202535 80 108 0.0 2.0 0.00 0.00 0.00 78 1010.4
20260902202035 80 118 0.0 4.0 0.00 0.00 0.00 78 1010.7
20260902201534 81 114 0.0 4.0 0.00 0.00 0.00 77 1010.6
20260902201034 81 81 0.0 4.0 0.00 0.00 0.00 77 1010.7
20260902200534 81 105 1.0 6.0 0.00 0.00 0.00 77 1010.5
20260902200034 81 113 2.0 6.0 0.00 0.00 0.00 76 1010.7
20260902195535 81 117 1.0 4.0 0.00 0.00 0.00 77 1010.6
20260902195034 81 103 1.0 3.0 0.00 0.00 0.00 76 1010.8
20260902194536 82 103 1.0 8.0 0.00 0.00 0.00 76 1011.1
20260902194037 82 135 2.0 12.0 0.00 0.00 0.00 76 1010.7
20260902193534 83 84 4.0 15.0 0.00 0.00 0.00 75 1011.0
20260902193035 83 63 4.0 15.0 0.00 0.00 0.00 74 1010.9
20260902192532 84 77 4.0 18.0 0.00 0.00 0.00 73 1010.8
20260902192032 86 323 6.0 17.0 0.00 0.00 0.00 69 1010.7
20260902191531 91 100 4.0 9.0 0.00 0.00 0.00 69 1010.4
20260902191030 91 107 1.0 5.0 0.00 0.00 0.00 70 1009.9
20260902190534 91 106 0.0 5.0 0.00 0.00 0.00 70 1009.7
20260902190031 91 139 1.0 3.0 0.00 0.00 0.00 70 1009.8
20260902185530 90 113 0.0 5.0 0.00 0.00 0.00 70 1010.0
20260902185035 90 83 1.0 6.0 0.00 0.00 0.00 69 1010.2
20260902184530 91 95 2.0 6.0 0.00 0.00 0.00 68 1010.4
20260902184030 91 134 1.0 6.0 0.00 0.00 0.00 68 1010.5
20260902183530 91 124 2.0 6.0 0.00 0.00 0.00 67 1010.6
20260902183029 92 134 2.0 6.0 0.00 0.00 0.00 68 1010.5
20260902182528 92 96 2.0 6.0 0.00 0.00 0.00 66 1010.4
20260902182028 92 44 2.0 6.0 0.00 0.00 0.00 65 1010.3
20260902181526 93 84 1.0 4.0 0.00 0.00 0.00 65 1010.1
20260902181026 93 88 1.0 4.0 0.00 0.00 0.00 65 1010.1
20260902180524 92 117 1.0 2.0 0.00 0.00 0.00 66 1010.3
20260902180025 92 276 0.0 4.0 0.00 0.00 0.00 66 1010.3
20260902175524 92 86 1.0 5.0 0.00 0.00 0.00 65 1010.3
20260902175023 92 108 2.0 7.0 0.00 0.00 0.00 65 1010.4
20260902174523 92 80 1.0 7.0 0.00 0.00 0.00 65 1010.4
20260902174026 92 98 1.0 4.0 0.00 0.00 0.00 66 1010.4
20260902173523 92 60 1.0 4.0 0.00 0.00 0.00 65 1010.3
20260902173021 92 133 1.0 4.0 0.00 0.00 0.00 64 1010.3
20260902172523 92 66 0.0 3.0 0.00 0.00 0.00 64 1010.3
20260902172020 92 86 1.0 7.0 0.00 0.00 0.00 65 1010.3
20260902171620 92 86 2.0 7.0 0.00 0.00 0.00 65 1010.3
20260902171019 91 51 0.0 4.0 0.00 0.00 0.00 66 1010.4
20260902170517 91 52 0.0 3.0 0.00 0.00 0.00 65 1010.4
20260902170016 91 115 1.0 3.0 0.00 0.00 0.00 65 1010.4
20260902165521 90 132 0.0 4.0 0.00 0.00 0.00 65 1010.5
20260902165015 90 88 1.0 4.0 0.00 0.00 0.00 66 1010.5
20260902164514 90 167 1.0 5.0 0.00 0.00 0.00 66 1010.5
20260902164015 91 77 2.0 5.0 0.00 0.00 0.00 66 1010.4
20260902163514 90 231 0.0 4.0 0.00 0.00 0.00 66 1010.5
20260902163012 90 298 0.0 4.0 0.00 0.00 0.00 67 1010.5
20260902162511 90 52 1.0 4.0 0.00 0.00 0.00 66 1010.5
20260902162011 89 117 0.0 4.0 0.00 0.00 0.00 67 1010.5
20260902161511 90 83 1.0 4.0 0.00 0.00 0.00 67 1010.5
20260902161011 90 330 1.0 4.0 0.00 0.00 0.00 66 1010.4
20260902160511 90 115 0.0 5.0 0.00 0.00 0.00 68 1010.4
20260902160017 90 120 1.0 5.0 0.00 0.00 0.00 68 1010.5
20260902155509 89 132 1.0 3.0 0.00 0.00 0.00 69 1010.4
20260902155009 89 120 0.0 3.0 0.00 0.00 0.00 68 1010.3
20260902154611 89 131 0.0 3.0 0.00 0.00 0.00 69 1010.4
20260902154006 88 116 0.0 6.0 0.00 0.00 0.00 71 1010.5
20260902153505 88 19 1.0 6.0 0.00 0.00 0.00 73 1010.6
20260902153006 88 69 2.0 6.0 0.00 0.00 0.00 71 1010.4
20260902152504 88 82 2.0 6.0 0.00 0.00 0.00 71 1010.4
20260902152003 88 111 1.0 3.0 0.00 0.00 0.00 71 1010.5
20260902151503 87 109 1.0 4.0 0.00 0.00 0.00 71 1010.4
20260902151004 88 101 1.0 5.0 0.00 0.00 0.00 72 1010.5
20260902150501 87 96 1.0 6.0 0.00 0.00 0.00 72 1010.5
20260902145601 87 84 2.0 5.0 0.00 0.00 0.00 73 1010.6
20260902145059 87 30 1.0 5.0 0.00 0.00 0.00 73 1010.6
20260902144602 87 113 1.0 3.0 0.00 0.00 0.00 73 1010.6
20260902144059 87 64 0.0 4.0 0.00 0.00 0.00 74 1010.6
20260902143559 86 40 0.0 4.0 0.00 0.00 0.00 74 1010.6
20260902143056 86 13 1.0 5.0 0.00 0.00 0.00 74 1010.6
20260902142555 86 82 1.0 3.0 0.00 0.00 0.00 75 1010.5
20260902142056 86 45 1.0 3.0 0.00 0.00 0.00 74 1010.5
20260902141554 85 113 0.0 3.0 0.00 0.00 0.00 76 1010.5
20260902141053 85 92 0.0 3.0 0.00 0.00 0.00 76 1010.5
20260902140552 85 72 0.0 3.0 0.00 0.00 0.00 77 1010.5
20260902140053 84 121 1.0 3.0 0.00 0.00 0.00 78 1010.4
20260902135550 84 56 0.0 4.0 0.00 0.00 0.00 78 1010.5
20260902135049 83 28 1.0 4.0 0.00 0.00 0.00 79 1010.5
20260902134550 83 46 1.0 3.0 0.00 0.00 0.00 79 1010.4
20260902134048 83 64 0.0 5.0 0.00 0.00 0.00 80 1010.4
20260902133548 82 340 1.0 5.0 0.00 0.00 0.00 79 1010.5
20260902133050 83 72 0.0 2.0 0.00 0.00 0.00 80 1010.5
20260902132547 82 70 0.0 3.0 0.00 0.00 0.00 81 1010.5
20260902132045 81 82 0.0 3.0 0.00 0.00 0.00 81 1010.2
20260902131549 81 7 1.0 3.0 0.00 0.00 0.00 81 1010.2
20260902131049 81 80 0.0 5.0 0.00 0.00 0.00 81 1010.1
20260902130544 81 102 0.0 2.0 0.00 0.00 0.00 82 1010.3
20260902130045 80 48 0.0 6.0 0.00 0.00 0.00 83 1010.2
20260902125544 80 358 0.0 4.0 0.00 0.00 0.00 83 1010.1
20260902125044 80 45 1.0 4.0 0.00 0.00 0.00 83 1010.1
20260902124544 79 10 0.0 4.0 0.00 0.00 0.00 83 1010.1
20260902124046 79 319 2.0 4.0 0.00 0.00 0.00 83 1010.1
20260902123543 79 44 1.0 4.0 0.00 0.00 0.00 83 1010.0
20260902123042 79 84 0.0 3.0 0.00 0.00 0.00 83 1010.2
20260902122543 79 79 0.0 4.0 0.00 0.00 0.00 84 1010.2
20260902122044 79 16 0.0 3.0 0.00 0.00 0.00 84 1010.3
20260902121544 78 68 0.0 1.0 0.00 0.00 0.00 85 1010.3
20260902121042 77 282 0.0 1.0 0.00 0.00 0.00 86 1010.3
20260902120542 77 275 0.0 1.0 0.00 0.00 0.00 86 1010.3
20260902120042 76 82 0.0 0.0 0.00 0.00 0.00 87 1010.2
20260902115542 76 82 0.0 0.0 0.00 0.00 0.00 87 1010.2
20260902115041 75 82 0.0 0.0 0.00 0.00 0.00 88 1010.2
20260902114610 75 82 0.0 0.0 0.00 0.00 0.00 88 1010.1
20260902114042 75 82 0.0 0.0 0.00 0.00 0.00 88 1010.1
20260902113540 75 82 0.0 0.0 0.00 0.00 0.00 88 1010.1
20260902113045 75 82 0.0 0.0 0.00 0.00 0.00 87 1010.1
20260902112539 75 82 0.0 0.0 0.00 0.00 0.00 87 1010.2
20260902112041 75 82 0.0 0.0 0.00 0.00 0.00 87 1010.2
20260902111539 75 82 0.0 0.0 0.00 0.00 0.00 87 1010.1
20260902111037 75 359 0.0 0.0 0.00 0.00 0.00 87 1010.1
20260902110537 75 359 0.0 0.0 0.00 0.00 0.00 87 1010.1
20260902110036 75 359 0.0 1.0 0.00 0.00 0.00 86 1010.1
20260902105539 75 359 0.0 3.0 0.00 0.00 0.00 86 1010.1
20260902105036 76 359 0.0 3.0 0.00 0.00 0.00 85 1010.0
20260902104534 76 18 0.0 2.0 0.00 0.00 0.00 85 1010.0
20260902104034 76 37 0.0 2.0 0.00 0.00 0.00 85 1010.0
20260902103533 76 323 0.0 3.0 0.00 0.00 0.00 85 1009.9
20260902103032 76 351 0.0 3.0 0.00 0.00 0.00 84 1009.9
20260902102533 76 23 0.0 3.0 0.00 0.00 0.00 84 1009.8
20260902102030 76 319 0.0 3.0 0.00 0.00 0.00 84 1009.8
20260902101530 76 44 0.0 2.0 0.00 0.00 0.00 84 1009.7
20260902101029 77 18 0.0 3.0 0.00 0.00 0.00 83 1009.6
20260902100530 77 19 0.0 3.0 0.00 0.00 0.00 83 1009.7
20260902100028 77 34 0.0 3.0 0.00 0.00 0.00 83 1009.7
20260902095528 77 24 0.0 3.0 0.00 0.00 0.00 82 1009.5
20260902095028 77 356 0.0 3.0 0.00 0.00 0.00 82 1009.5
20260902094528 77 33 0.0 3.0 0.00 0.00 0.00 82 1009.4
20260902094028 77 18 0.0 4.0 0.00 0.00 0.00 82 1009.4
20260902093527 77 30 0.0 3.0 0.00 0.00 0.00 81 1009.4
20260902093027 77 23 0.0 2.0 0.00 0.00 0.00 81 1009.4
20260902092530 77 79 0.0 2.0 0.00 0.00 0.00 82 1009.4
20260902092029 77 248 0.0 0.0 0.00 0.00 0.00 82 1009.3
20260902091525 77 248 0.0 0.0 0.00 0.00 0.00 82 1009.3
20260902091027 77 248 0.0 0.0 0.00 0.00 0.00 81 1009.4
20260902090525 78 248 0.0 0.0 0.00 0.00 0.00 81 1009.4
20260902090027 78 248 0.0 0.0 0.00 0.00 0.00 81 1009.4
20260902085523 78 248 0.0 1.0 0.00 0.00 0.00 80 1009.5
20260902085023 78 278 0.0 1.0 0.00 0.00 0.00 80 1009.4
20260902084523 78 278 0.0 1.0 0.00 0.00 0.00 80 1009.4
20260902084026 78 314 0.0 1.0 0.00 0.00 0.00 80 1009.4
20260902083521 78 296 0.0 1.0 0.00 0.00 0.00 80 1009.3
20260902083025 78 297 0.0 1.0 0.00 0.00 0.00 79 1009.3
20260902082521 78 280 0.0 1.0 0.00 0.00 0.00 79 1009.3
20260902082021 78 280 0.0 1.0 0.00 0.00 0.00 79 1009.2
20260902081523 79 22 0.0 1.0 0.00 0.00 0.00 79 1009.2
20260902081020 79 53 0.0 2.0 0.00 0.00 0.00 79 1009.3
20260902080520 79 48 0.0 3.0 0.00 0.00 0.00 79 1009.4
20260902080020 78 51 0.0 3.0 0.00 0.00 0.00 79 1009.3
20260902075519 78 349 0.0 2.0 0.00 0.00 0.00 79 1009.4
20260902075023 79 296 0.0 2.0 0.00 0.00 0.00 79 1009.4
20260902074525 78 288 0.0 2.0 0.00 0.00 0.00 79 1009.4
20260902074019 78 299 0.0 2.0 0.00 0.00 0.00 80 1009.4
20260902073518 78 279 0.0 1.0 0.00 0.00 0.00 80 1009.5
20260902073016 79 291 0.0 0.0 0.00 0.00 0.00 79 1009.4
20260902072516 79 291 0.0 0.0 0.00 0.00 0.00 79 1009.4
20260902072014 79 291 0.0 1.0 0.00 0.00 0.00 78 1009.4
20260902071515 80 291 0.0 1.0 0.00 0.00 0.00 77 1009.4
20260902071015 80 312 0.0 1.0 0.00 0.00 0.00 77 1009.3
20260902070515 80 42 0.0 1.0 0.00 0.00 0.00 77 1009.2
20260902070012 80 51 0.0 2.0 0.00 0.00 0.00 76 1009.2
20260902065512 80 75 0.0 2.0 0.00 0.00 0.00 76 1009.2
20260902065012 80 67 0.0 2.0 0.00 0.00 0.00 77 1009.3
20260902064512 80 5 0.0 2.0 0.00 0.00 0.00 76 1009.2
20260902064010 81 89 0.0 1.0 0.00 0.00 0.00 76 1009.1
20260902063512 81 304 0.0 1.0 0.00 0.00 0.00 76 1009.0
20260902063009 81 70 0.0 2.0 0.00 0.00 0.00 76 1009.1
20260902062507 81 19 0.0 2.0 0.00 0.00 0.00 76 1009.0
20260902062010 81 34 0.0 3.0 0.00 0.00 0.00 76 1008.9
20260902061516 81 67 0.0 3.0 0.00 0.00 0.00 76 1008.9
20260902061005 82 44 0.0 4.0 0.00 0.00 0.00 76 1008.9
20260902060504 82 38 0.0 6.0 0.00 0.00 0.00 76 1008.9
20260902060009 82 54 2.0 6.0 0.00 0.00 0.00 76 1008.7
20260902055505 82 86 0.0 3.0 0.00 0.00 0.00 75 1008.6
20260902055004 82 7 0.0 3.0 0.00 0.00 0.00 75 1008.6
20260902054501 82 32 0.0 3.0 0.00 0.00 0.00 76 1008.7
20260902054001 81 72 0.0 1.0 0.00 0.00 0.00 77 1008.7
20260902053600 81 54 0.0 1.0 0.00 0.00 0.00 78 1008.6
20260902053105 81 287 0.0 1.0 0.00 0.00 0.00 79 1008.6
20260902052559 81 287 0.0 1.0 0.00 0.00 0.00 80 1008.7
20260902052102 81 283 0.0 2.0 0.00 0.00 0.00 80 1008.7
20260902051559 81 284 0.0 3.0 0.00 0.00 0.00 81 1008.6
20260902051057 80 287 0.0 2.0 0.00 0.00 0.00 81 1008.7
20260902050557 80 257 0.0 2.0 0.00 0.00 0.00 82 1008.7